Regional Weather Roundup
Issued by NWS Pendleton, OR

Home | Current Version | Previous Version | Text Only | Print | Product List | Glossary On
Versions: 1 2 3 4 5 6 7 8 9 10 11 12 13 14 15 16 17 18 19 20 21 22 23 24 25 26 27 28 29 30 31 32 33 34 35 36 37 38 39 40 41 42 43 44 45 46 47 48 49 50
000
ASUS46 KPDT 060125
RWRPDT
PENDLETON REGIONAL WEATHER ROUNDUP
NATIONAL WEATHER SERVICE PENDLETON OREGON
600 PM PDT SUN JUL 5 2015

NOTE: FAIR INDICATES FEW OR NO CLOUDS BELOW 12,000 FEET WITH NO
SIGNIFICANT WEATHER AND/OR OBSTRUCTIONS TO VISIBILITY.

# INDICATES UNOFFICIAL STATION AND DATA

WAZ520-060210-
EAST SLOPES OF WASHINGTON CASCADES

CITY            SKY/WX      TMP DP  RH  WIND    PRES   REMARKS
#BUMPING DAM    N/A         84  N/A N/A CALM    N/A
#CLE ELUM HS    N/A         91  37  15  SE6     29.81S HX 87
#CLE ELUM LAKE  N/A         90  38  16  SW1     29.71F HX 86
#CLIFFDEL 2NW   N/A         92  34  13  S2      N/A    HX 88
#GLENWOOD       N/A         93  48  22  CALM    29.74F HX 90
#MANASTASH CYN  N/A         84  39  20  N2      29.91S
#NELSON         N/A         91  40  17  CALM    29.74S HX 87
#NELSON 3SW     N/A         89  38  17  CALM    29.92S
#RONALD 2NW     N/A         90  37  15  S2      29.81R HX 86
#SNOWDEN        N/A         88  25  10  NW3     N/A
#TEANAWAY 4NE   N/A         93  44  19  SW5     N/A    HX 89
#TROUT LAKE 1NE N/A         92  45  20  CALM    29.72S HX 88
$$

WAZ521-060210-
SIMCOE HIGHLANDS

CITY            SKY/WX      TMP DP  RH  WIND    PRES   REMARKS
#BICKLETON HS   N/A         86  18   8  E7      N/A
#CENTERVILLE 1SWN/A         94  42  17  SE1     29.65S HX 90
#GOLDENDALE     N/A         95  30  10  SW5     N/A    HX 90
#GOLDENDALE 5WNWN/A         95  44  17  SW3     29.70F HX 91
#GOODNOE HILLS  N/A         98  36  12  SE12    N/A    HX 93
#LYLE 6NE       N/A         94  57  29  SW9     29.70S HX 93
$$

WAZ026-060210-
KITTITAS VALLEY

CITY            SKY/WX      TMP DP  RH  WIND    PRES   REMARKS
ELLENSBURG AP   PTCLDY      97  33  11  SE9     29.85F HX 92
YTC-OPS AREA    N/A         86  28  12  NE6     29.93F
#ELLENSBURG CWU N/A         92  38  15  E9      29.70S HX 88
#ELLENSBURG 3NE N/A         91  40  17  CALM    29.85F HX 87
#ELLENSBURG 1E  N/A         91  35  14  CALM    N/A    HX 87
#KITTITAS 3S    N/A         88  56  34  CALM    29.73F
#THORP 6N       N/A         90  36  15  E6      29.76S HX 86
$$

WAZ027-060210-
YAKIMA VALLEY

CITY            SKY/WX      TMP DP  RH  WIND    PRES   REMARKS
SUNNYSIDE AP    SUNNY       94  45  19  CALM    29.79F HX 90
YAKIMA AIRPORT  SUNNY       98  40  14  E6      29.81F SMOKE HX 93
#DONALD 2NE     N/A         99  22   6  E1      28.65F HX 93
#GRANDVIEW      N/A         94  37  14  CALM    29.74F HX 90
#MABTON         N/A         97  61  31  CALM    29.78S HX 98
#MOXEE 2E       N/A         92  16   6  S3      29.70F HX 88
#NACHES 2SW     N/A         94  57  29  S1      29.87S HX 93
#OUTLOOK DOT    N/A         N/A N/A N/A SW2     N/A
#SELAH 8E       N/A         95  32  11  NE5     N/A    HX 90
#TERRACE HTS    N/A         94  42  17  S1      29.70S HX 90
#TOPPENISH      N/A         94  45  19  CALM    29.66F HX 90
#WAPATO 4NE     N/A         99  22   6  E1      28.65F HX 93
#WEST VALLEY    N/A         94  39  15  CALM    29.71F HX 90
#W YAKIMA       N/A         94  41  16  S1      29.73F HX 90
#WHITE SWAN 5E  N/A         93  54  27  NE3     29.74F HX 91
#WILEY CITY 3W  N/A         92  28  10  CALM    29.80F HX 88
$$

WAZ028-060210-
LOWER COLUMBIA BASIN...WASHINGTON

CITY            SKY/WX      TMP DP  RH  WIND    PRES   REMARKS
PASCO           PTCLDY      95  53  24  N14     29.76S HX 92
RICHLAND AWOS   PTCLDY      100 41  13  N7      29.76S HX 95
#BASIN CITY 5SW N/A         93  61  35  N3      29.77F HX 93
#BENTON CITY    N/A         96  39  14  N5      29.64S HX 91
#CONNELL 5N     N/A         98  41  14  NW1     29.72S HX 93
#CONNELL 5NW    N/A         92  45  20  NW7     29.70S HX 88
#ELTOPIA 6NW    N/A         95  57  28  NW6     28.77F HX 94
#KAHLOTUS       N/A         94  42  17  E12     29.71S HX 90
#KENNEWICK 3S   N/A         96  47  19  CALM    29.72F HX 92
#PATERSON       N/A         98  54  23  NE1     29.71F HX 96
#PROSSER        N/A         97  38  13  CALM    29.72F HX 92
#SAGEMOOR 2W    N/A         89  60  38  NW5     29.59S
#TOUCHET 2S     N/A         92  60  34  NW3     29.70F HX 92
#WEST PASCO     N/A         99  51  20  N5      29.73F HX 96
$$

WAZ029-060210-
FOOTHILLS OF THE BLUES...WASHINGTON

CITY            SKY/WX      TMP DP  RH  WIND    PRES   REMARKS
WALLA WALLA AP  PTCLDY      95  45  18  W8      29.80S HX 91
#DAYTON SCHOOL  N/A         94  42  17  N5      29.82S HX 90
#LOWDEN 2SE     N/A         95  58  29  W5      29.72S HX 94
#PLEASANT VIEW 1N/A         95  43  17  NW5     29.74S HX 91
#PRESCOTT       N/A         97  53  23  SW6     29.68S HX 95
#SUDBURY        N/A         97  N/A N/A CALM    N/A
#WAITSBURG 5S   N/A         94  47  20  W6      29.80S HX 90
#WAITSBURG 8N   N/A         98  34  11  N6      29.65S HX 93
#WALLA WALLA U  N/A         96  52  23  CALM    29.71F HX 93
#WHITMAN MISSIONN/A         96  52  23  SW3     29.73F HX 93
$$

WAZ030-060210-
BLUE MOUNTAINS...WASHINGTON

CITY            SKY/WX      TMP DP  RH  WIND    PRES   REMARKS
#DIXIE 5SE      N/A          0  -78  1  CALM    29.87S
$$

ORZ009-041-WAZ024-060210-
COLUMBIA RIVER GORGE

CITY            SKY/WX      TMP DP  RH  WIND    PRES   REMARKS
HOOD RIVER AP   PTCLDY      95  54  25  NW7     29.78S HX 93
THE DALLES AP   SUNNY       101 51  19  NW13    29.73S HX 98
#ARLINGTON AIRPON/A         96  35  12  E7      29.45S HX 91
#ARLINGTON HS   N/A         98  36  12  CALM    29.61F HX 93
#CELILO DOT     N/A         107 61  23  NW1     N/A    HX 110
#MOSIER 1S      N/A         94  41  16  NW3     29.76S HX 90
#MURDOCK        N/A         96  61  32  NW12    29.72S HX 97
#RUFUS DOT      N/A         100 58  25  SE8     N/A    HX 100

$$

ORZ510-060210-
NORTH CENTRAL OREGON

CITY            SKY/WX      TMP DP  RH  WIND    PRES   REMARKS
#CHENOWITH 1W   N/A         91  51  26  W18     N/A    HX 88
#COW CYN RST AREN/A         91  N/A N/A N10     N/A
#DUFUR 9E       N/A         92  34  13  N5      29.77S HX 88
#GRASS VALLEY 1SN/A         94  39  15  NE3     29.75F HX 90
#KENT DOT       N/A         93  46  20  N9      N/A    HX 89
#MAUPIN SCHOOL  N/A         98  32  10  N8      29.78S HX 93
#MORO SCHOOL    N/A         94  45  19  NE1     29.85F HX 90
#SHANIKO 5WSW   N/A         90  50  26  NW8     N/A    HX 87
#SHANIKO 4NW    N/A         88  34  15  N8      29.96S
#TYGH VALLEY 2NEN/A         98  42  15  N8      29.70S HX 94
#WAPANITIA AIRPON/A         95  36  13  NE7     29.72R HX 90
#WASCO DOT      N/A         98  52  21  NE7     N/A    HX 95
#WASCO AIRPORT  N/A         96  28   9  N5      N/A    HX 91
#WASCO 5NE      N/A         95  42  16  NE7     29.72F HX 91
$$

ORZ511-060210-
CENTRAL OREGON

CITY            SKY/WX      TMP DP  RH  WIND    PRES   REMARKS
BEND AIRPORT    N/A         N/A N/A N/A MISG    N/A
MADRAS AIRPORT  PTCLDY      95  41  16  W7      29.88S HX 91
PRINEVILLE AP   PTCLDY      91  39  16  W16G28  29.91S HX 87
REDMOND AIRPORT SUNNY       93  41  17  NW16G24 29.91R HX 89
#BEND 1SW       N/A         85  48  28  W3      N/A
#BEND-AWBREY    N/A         91  48  23  W3      29.72S HX 88
#BEND-KIM LN    N/A         87  50  28  CALM    29.93R
#CROOKED RVR RANN/A         92  48  22  NW13    29.70S HX 89
#CULVER         N/A         94  47  20  E1      29.84S HX 90
#LAKE BILLY CHINN/A         91  11   5  NW20    29.89S HX 87
#POWELL BUTTE 3EN/A         91  45  20  NW9     N/A    HX 87
#POWELL BUTTE   N/A         89  47  24  N7      29.58R
#PRINEVILLE 3N  N/A         86  58  39  W8      29.68S
#WARM SPRINGS   N/A         98  50  20  S6      29.77S HX 95

$$


ORZ509-060210-
EAST SLOPES OF OREGON CASCADES

CITY            SKY/WX      TMP DP  RH  WIND    PRES   REMARKS
#CAMP SHERMAN   N/A         89  44  21  N3      29.78R
#LA PINE 4NW    N/A         80  47  31  N1      29.82R
#SISTERS AIRPOR N/A         87  55  34  N8G25   30.17S
#SISTERS ODOT   N/A         89  N/A N/A SW6     N/A
#SISTERS 1NW    N/A         88  46  23  NW14    N/A
#SISTERS 3N     N/A         88  45  23  CALM    29.95R
#SUNRIVER       N/A         82  49  32  SW2     29.65F
#TUMALO 3W      N/A         87  49  27  N15     29.60S
#WANOGA BUTTE D N/A         75  42  31  NW10    N/A

$$

ORZ044-060210-
LOWER COLUMBIA BASIN...OREGON

CITY            SKY/WX      TMP DP  RH  WIND    PRES   REMARKS
HERMISTON       PTCLDY      98  40  14  CALM    29.77S HX 93
#BOARDMAN SCHOOLN/A         98  39  13  N3      29.76F HX 93
#BOARDMAN 8SW   N/A         98  46  17  N2      29.73S HX 94
#ECHO 8SW       N/A         98  44  16  CALM    29.79S HX 94
#IONE SCHOOL    N/A         95  34  12  W1      29.78S HX 90
#IRRIGON 4NW    N/A         101 39  12  N5      N/A    HX 96
#UMATILLA SCHOOLN/A         102 59  25  NW7     29.82S HX 103
#UMATILLA       N/A         100 47  17  CALM    29.67S HX 96
$$

ORZ507-060210-
NORTHERN FOOTHILLS OF THE BLUES

CITY            SKY/WX      TMP DP  RH  WIND    PRES   REMARKS
PENDLETON AIRPT SUNNY       96  40  14  N9      29.82S HX 91
#ADAMS 3WNW     N/A         94  44  18  NE6     29.71F HX 90
#ATHENA         N/A         92  46  21  CALM    29.75S HX 88
#CAYUSE         N/A         93  45  19  N8      29.71F HX 89
#HELIX SCHOOL   N/A         91  47  22  N7      29.72F HX 88
#HELIX 3N       N/A         91  46  21  W8      29.83S HX 87
#HOLDMAN 6E     N/A         95  49  21  N2      29.54F HX 92
#M-F GROVE ELEM N/A         96  44  17  CALM    29.80S HX 92
#M-FREEWATER 5SEN/A         93  55  28  W2      29.81F HX 91
#PENDLETON DNTN N/A         96  47  19  CALM    29.78S HX 92
#PDT AQUATIC CTRN/A         98  44  16  N3      29.86S HX 94
#PDT SUNRIDGE   N/A         97  43  16  CALM    29.80F HX 93
#PENDLETON 7NW  N/A         94  55  27  CALM    26.82S HX 92
#PILOT ROCK     N/A         92  44  19  N1      29.86F HX 88
#TUTUILLA       N/A         92  46  21  NE7     29.75F HX 88
#UMAPINE 2E     N/A         95  55  26  CALM    29.74F HX 93
#WESTON SCHOOL  N/A         90  42  19  E5      29.72S HX 86

$$

ORZ508-060210-
SOUTHERN FOOTHILLS OF THE BLUES

CITY            SKY/WX      TMP DP  RH  WIND    PRES   REMARKS
#AJAX           N/A         92  30  11  NE7     29.82F HX 88
#CONDON SCHOOL  N/A         90  36  15  N8      29.88S HX 86
#CONDON 5W      N/A         86  29  13  NE10    29.91F
#FOSSIL SCHOOL  N/A         91  35  14  NE9     29.85S HX 87
#HEPPNER EOC    N/A         94  36  13  NE5     29.67S HX 89
#HEPPNER 4NE    N/A         88  36  16  N3      29.73S
#LEXINGTON 2SE  N/A         95  40  15  NE2     29.80F HX 91
#RUGGS 5NE      N/A         93  -8   2  N6      30.07S HX 89
#RUGGS 2SW      N/A         89  34  14  NE6     29.74S

$$

ORZ502-503-060210-
BLUE MOUNTAINS

CITY            SKY/WX      TMP DP  RH  WIND    PRES   REMARKS
MEACHAM         PTCLDY      84  36  18  VRB6    29.99R
#BATTLE MTN DOT N/A         80  55  42  N2      N/A
#HEPPNER 15SE   N/A         82  38  21  N1      29.92S
#LONG CREEK HS  N/A         84  36  18  CALM    29.89S
#N POWDER DOT   N/A         86  53  32  NE15    N/A
#PIKES PEAK     N/A         84  45  26  NW5     27.99S
#TOLLGATE       N/A         76  39  26  S1      29.99S
#TROY SCHOOL    N/A         96  46  18  SE1     29.54R HX 92
#UKIAH          N/A         85  38  19  NE8     29.78S
#WESTON 4E      N/A         88  43  21  CALM    29.69F
$$

ORZ505-060210-
JOHN DAY BASIN

CITY            SKY/WX      TMP DP  RH  WIND    PRES   REMARKS
JOHN DAY        CLOUDY      89  39  17  SW5     29.93F
#JOHN DAY KJDY  N/A         90  75  62  CALM    29.92R HX 101
#DAYVILLE SCHOOLN/A         96  37  13  N7      29.81F HX 91
#MITCHELL       N/A         91  51  26  CALM    30.05F HX 88
#MONUMENT HS    N/A         95  34  12  N6      29.83S HX 90
#MT. VERNON 5SE N/A         86  41  21  CALM    29.91F
#WINLOCK        N/A         89  37  16  CALM    29.99F
$$

ORZ506-060210-
OCHOCO AND JOHN DAY HIGHLANDS

CITY            SKY/WX      TMP DP  RH  WIND    PRES   REMARKS
#BUCK CREEK DOT N/A         72  72  100 SW16    N/A
#HORSE RIDGE DO N/A         84  40  21  W16     N/A
#KEYES SMT DOT  N/A         87  40  19  S15     N/A
#PAULINA SCHOOL N/A         92  39  16  S1      29.92S HX 88
#PINE MTN OBS   N/A         71  44  38  W6      N/A
#PRAIRIE CITY   N/A         85  53  33  CALM    29.67R
#SENECA         N/A         85  N/A N/A CALM    N/A
#SENECA 9NW     N/A         80  47  31  CALM    29.74F
$$

ORZ049-060210-
GRANDE RONDE VALLEY

CITY            SKY/WX      TMP DP  RH  WIND    PRES   REMARKS
LA GRANDE       PTCLDY      90  37  15  N9      29.89S HX 86
#COVE           N/A         88  53  30  N3      29.93R
#ELGIN 3N       N/A         90  43  20  NW2     29.88S HX 86
#ELGIN 1E       N/A         91  43  19  CALM    N/A    HX 87
#IMBLER SCHOOL  N/A         87  47  25  N3      29.86S
#ISLAND CITY 4N N/A         96  48  20  CALM    29.79F HX 93
#LADD CYN DOT   N/A         91  50  25  NW8     N/A    HX 88
#UNION 1S       N/A         92  41  17  NW7     29.62S HX 88
$$

ORZ050-060210-
WALLOWA COUNTY

CITY            SKY/WX      TMP DP  RH  WIND    PRES   REMARKS
JOSEPH AIRPORT  N/A         86  36  17  N5      29.99S
#IMNAHA SCHOOL  N/A         94  41  16  N6      29.80R HX 90
#IMNAHA 10S     N/A         76  51  42  SW3     30.01S
#JOSEPH 3N      N/A         83  44  25  NW8     29.99S
#JOSEPH 3W      N/A         84  41  22  SW3     29.88R
#LOSTINE        N/A         87  42  21  NW2     29.54R
#MT HOWARD 8000 N/A         66  N/A N/A NW5     30.29R
#PROMISE 1S     N/A         84  45  26  S7      29.83R
#WALLOWA SCHOOL N/A         90  42  19  W1      29.87S HX 86



$$



USA.gov is the U.S. government's official web portal to all federal, state and local government web resources and services.